Hourly Weather Outreau

Today, 5 December, Saturday

Time Temperature Precipitation Wind Pressure Humidity
00:00 -2°C° 0 mm 8 mps 735 mmHg 91%
01:00 -2°C° 0 mm 7 mps 735 mmHg 92%
02:00 -2°C° 0 mm 7 mps 736 mmHg 94%
03:00 -2°C° 0 mm 6 mps 736 mmHg 95%
04:00 -2°C° 0.1 mm 6 mps 736 mmHg 95%
05:00 -2°C° 0.1 mm 6 mps 737 mmHg 96%
06:00 -2°C° 0.1 mm 6 mps 737 mmHg 96%
07:00 -1°C° 0 mm 7 mps 738 mmHg 94%
08:00 -1°C° 0 mm 7 mps 738 mmHg 92%
09:00 -1°C° 0 mm 7 mps 738 mmHg 90%
10:00 0°C° 0 mm 7 mps 739 mmHg 86%
11:00 +2°C° 0 mm 7 mps 739 mmHg 82%
12:00 +3°C° 0 mm 7 mps 739 mmHg 77%
13:00 +3°C° 0 mm 7 mps 739 mmHg 79%
14:00 +2°C° 0 mm 7 mps 739 mmHg 81%
15:00 +2°C° 0 mm 7 mps 739 mmHg 82%
16:00 +2°C° 0.1 mm 7 mps 740 mmHg 84%
17:00 +2°C° 0.1 mm 7 mps 740 mmHg 86%
18:00 0°C° 0.1 mm 7 mps 740 mmHg 88%
19:00 +2°C° 0.5 mm 7 mps 741 mmHg 89%
20:00 +2°C° 0.5 mm 7 mps 741 mmHg 90%
21:00 +2°C° 0.5 mm 7 mps 742 mmHg 90%
22:00 +2°C° 0.3 mm 7 mps 742 mmHg 89%
23:00 +2°C° 0.3 mm 7 mps 742 mmHg 88%

Tomorrow, 6 December, Sunday

Time Temperature Precipitation Wind Pressure Humidity
00:00 +2°C° 0.3 mm 7 mps 742 mmHg 87%
01:00 +2°C° 0.1 mm 6 mps 742 mmHg 88%
02:00 +2°C° 0.1 mm 6 mps 742 mmHg 89%
03:00 +2°C° 0.1 mm 5 mps 743 mmHg 90%
04:00 +1°C° 0 mm 5 mps 743 mmHg 90%
05:00 +1°C° 0 mm 5 mps 743 mmHg 90%
06:00 +1°C° 0 mm 6 mps 744 mmHg 90%
07:00 +1°C° 0 mm 5 mps 744 mmHg 90%
08:00 +1°C° 0 mm 4 mps 744 mmHg 89%
09:00 +1°C° 0 mm 4 mps 745 mmHg 88%
10:00 +3°C° 0 mm 4 mps 745 mmHg 86%
11:00 +3°C° 0 mm 3 mps 745 mmHg 84%
12:00 +4°C° 0 mm 3 mps 746 mmHg 81%
13:00 +4°C° 0 mm 3 mps 746 mmHg 82%
14:00 +4°C° 0 mm 3 mps 746 mmHg 84%
15:00 +3°C° 0 mm 3 mps 745 mmHg 85%
16:00 +3°C° 0 mm 3 mps 746 mmHg 87%
17:00 +2°C° 0 mm 3 mps 746 mmHg 89%
18:00 +1°C° 0 mm 3 mps 746 mmHg 90%
19:00 +1°C° 0 mm 3 mps 746 mmHg 90%
20:00 +1°C° 0 mm 3 mps 746 mmHg 89%
21:00 +2°C° 0 mm 2 mps 746 mmHg 89%
22:00 +2°C° 0 mm 2 mps 746 mmHg 89%
23:00 +2°C° 0 mm 2 mps 746 mmHg 89%

Day after tomorrow, 7 December, Monday

Time Temperature Precipitation Wind Pressure Humidity
00:00 +1°C° 0 mm 3 mps 746 mmHg 89%
01:00 +2°C° 0 mm 2 mps 746 mmHg 89%
02:00 +2°C° 0 mm 2 mps 746 mmHg 88%
03:00 +3°C° 0 mm 1 mps 745 mmHg 87%
04:00 +2°C° 0 mm 2 mps 745 mmHg 86%
05:00 +2°C° 0 mm 2 mps 745 mmHg 86%
06:00 +1°C° 0 mm 3 mps 745 mmHg 85%
07:00 +2°C° 0 mm 3 mps 745 mmHg 85%
08:00 +3°C° 0 mm 4 mps 745 mmHg 86%
09:00 +3°C° 0 mm 4 mps 745 mmHg 86%
10:00 +4°C° 0 mm 4 mps 745 mmHg 83%
11:00 +5°C° 0 mm 3 mps 745 mmHg 81%
12:00 +5°C° 0 mm 3 mps 744 mmHg 78%
13:00 +6°C° 0 mm 2 mps 744 mmHg 80%
14:00 +6°C° 0 mm 2 mps 744 mmHg 82%
15:00 +5°C° 0 mm 2 mps 744 mmHg 84%
16:00 +5°C° 0.2 mm 2 mps 745 mmHg 86%
17:00 +5°C° 0.2 mm 2 mps 745 mmHg 88%
18:00 +4°C° 0.2 mm 2 mps 745 mmHg 90%
19:00 +4°C° 0.2 mm 2 mps 745 mmHg 91%
20:00 +4°C° 0.2 mm 2 mps 745 mmHg 91%
21:00 +3°C° 0.2 mm 3 mps 745 mmHg 92%
22:00 +3°C° 0.1 mm 2 mps 746 mmHg 92%
23:00 +3°C° 0.1 mm 2 mps 746 mmHg 93%

8 December, Tuesday

Time Temperature Precipitation Wind Pressure Humidity
00:00 +3°C° 0.1 mm 2 mps 746 mmHg 93%
01:00 +3°C° 0.2 mm 2 mps 746 mmHg 92%
02:00 +3°C° 0.2 mm 2 mps 746 mmHg 91%
03:00 +3°C° 0.2 mm 2 mps 746 mmHg 90%
04:00 +3°C° 0.4 mm 2 mps 746 mmHg 91%
05:00 +3°C° 0.4 mm 2 mps 747 mmHg 92%
06:00 +3°C° 0.4 mm 2 mps 747 mmHg 94%
07:00 +3°C° 0.3 mm 2 mps 747 mmHg 92%
08:00 +3°C° 0.3 mm 2 mps 748 mmHg 90%
09:00 +3°C° 0.3 mm 2 mps 748 mmHg 88%
10:00 +3°C° 0.1 mm 2 mps 749 mmHg 85%
11:00 +4°C° 0.1 mm 2 mps 749 mmHg 83%
12:00 +5°C° 0.1 mm 2 mps 749 mmHg 81%
13:00 +5°C° 0 mm 2 mps 749 mmHg 82%
14:00 +5°C° 0 mm 2 mps 750 mmHg 83%
15:00 +5°C° 0 mm 2 mps 750 mmHg 85%
16:00 +4°C° 0 mm 2 mps 750 mmHg 85%
17:00 +5°C° 0 mm 1 mps 751 mmHg 86%
18:00 +5°C° 0 mm 1 mps 751 mmHg 86%
19:00 +4°C° 0 mm 1 mps 751 mmHg 88%
20:00 +4°C° 0 mm 1 mps 751 mmHg 90%
21:00 +3°C° 0 mm 1 mps 751 mmHg 92%
22:00 +3°C° 0 mm 1 mps 752 mmHg 93%
23:00 +3°C° 0 mm 1 mps 752 mmHg 93%

9 December, Wednesday

Time Temperature Precipitation Wind Pressure Humidity
00:00 +3°C° 0 mm 1 mps 752 mmHg 94%
01:00 +2°C° 0 mm 1 mps 752 mmHg 94%
02:00 +1°C° 0 mm 2 mps 752 mmHg 94%
03:00 +1°C° 0 mm 2 mps 752 mmHg 94%
04:00 +1°C° 0 mm 2 mps 752 mmHg 94%
05:00 +1°C° 0 mm 2 mps 752 mmHg 94%
06:00 +1°C° 0 mm 2 mps 752 mmHg 94%
07:00 0°C° 0 mm 3 mps 752 mmHg 93%
08:00 0°C° 0 mm 3 mps 753 mmHg 92%
09:00 0°C° 0 mm 4 mps 753 mmHg 91%
10:00 +1°C° 0 mm 4 mps 753 mmHg 87%
11:00 +3°C° 0 mm 4 mps 753 mmHg 82%
12:00 +4°C° 0 mm 4 mps 752 mmHg 78%
13:00 +4°C° 0 mm 4 mps 752 mmHg 81%
14:00 +3°C° 0 mm 4 mps 752 mmHg 84%
15:00 +3°C° 0 mm 4 mps 752 mmHg 86%
16:00 +1°C° 0 mm 4 mps 752 mmHg 89%
17:00 0°C° 0 mm 5 mps 752 mmHg 91%
18:00 -1°C° 0 mm 5 mps 752 mmHg 94%
19:00 -1°C° 0 mm 5 mps 752 mmHg 95%
20:00 -1°C° 0 mm 5 mps 752 mmHg 95%
21:00 -2°C° 0 mm 5 mps 752 mmHg 96%
22:00 -2°C° 0 mm 5 mps 751 mmHg 96%
23:00 -2°C° 0 mm 5 mps 751 mmHg 96%

10 December, Thursday

Time Temperature Precipitation Wind Pressure Humidity
00:00 -1°C° 0 mm 5 mps 751 mmHg 96%
01:00 -1°C° 0 mm 5 mps 751 mmHg 94%
02:00 -1°C° 0 mm 5 mps 751 mmHg 93%
03:00 0°C° 0 mm 5 mps 750 mmHg 92%
04:00 0°C° 0 mm 5 mps 750 mmHg 92%
05:00 -1°C° 0 mm 5 mps 750 mmHg 92%
06:00 -1°C° 0 mm 5 mps 750 mmHg 92%
07:00 -1°C° 0 mm 5 mps 750 mmHg 93%
08:00 -1°C° 0 mm 5 mps 750 mmHg 94%
09:00 -1°C° 0 mm 5 mps 750 mmHg 94%
10:00 0°C° 0 mm 5 mps 750 mmHg 91%
11:00 +1°C° 0 mm 5 mps 749 mmHg 87%
12:00 +2°C° 0 mm 5 mps 749 mmHg 84%
13:00 +1°C° 0 mm 5 mps 749 mmHg 83%
14:00 +1°C° 0 mm 6 mps 748 mmHg 81%
15:00 +1°C° 0 mm 6 mps 748 mmHg 80%
16:00 -1°C° 0 mm 6 mps 747 mmHg 82%
17:00 -2°C° 0 mm 7 mps 747 mmHg 84%
18:00 -2°C° 0 mm 7 mps 747 mmHg 86%
19:00 -2°C° 0 mm 8 mps 747 mmHg 85%
20:00 -2°C° 0 mm 8 mps 746 mmHg 84%
21:00 -2°C° 0 mm 8 mps 746 mmHg 83%
22:00 -4°C° 0 mm 8 mps 746 mmHg 83%
23:00 -4°C° 0 mm 8 mps 745 mmHg 83%
Show more